Cloud_Cover
94 98 70 61 53 100 66 57 5 13 1 3 5 60 6 100 100 100 100 99 100 97 76 98 100 98 100 20 27 61 100 98 100 83 20 60 6 43 15 100 86 100 76 8 50 5 37 100 100
55 100 96 70 83 85 76 98 2 4 6 91 4 5 5 100 100 95 100 33 93 43 100 66 88 100 87 100 100 80 100 99 69 86 70 89 49 100 100 96 72 47 88 63 2 31 100 100 99
100 81 78 60 100 54 35 9 96 65 95 2 3 5 5 100 100 100 98 100 58 100 100 90 5 5 10 41 93 93 74 100 62 99 85 100 100 100 100 74 7 40 18 5 8 100 100 100 12
100 100 73 99 6 82 77 98 10 21 96 15 1 16 80 100 100 100 94 96 100 68 97 14 6 76 5 16 82 17 78 93 100 100 100 100 100 79 26 100 6 32 5 89 98 100 100 89 0
100 100 100 100 60 45 62 99 73 2 6 11 7 16 33 99 93 100 96 88 42 33 60 56 6 5 5 11 100 100 100 98 92 91 93 88 94 100 67 54 26 30 80 2 2 0 0 0 0
100 100 100 100 26 85 100 87 89 31 0 2 3 2 14 0 1 26 2 3 2 1 0 4 0 3 5 5 100 84 84 81 97 90 95 100 100 100 100 100 98 1 0 0 0 0 0 0 0
100 100 100 96 16 100 100 100 16 0 0 0 0 0 0 16 7 77 0 0 0 0 0 2 5 5 5 58 42 55 74 82 100 100 100 100 100 100 100 100 100 0 0 0 0 0 0 0 0
100 100 100 100 52 5 1 88 33 0 0 0 0 0 0 100 98 21 0 7 0 0 0 5 5 5 9 92 44 67 90 100 100 100 100 100 100 100 100 100 40 0 32 26 72 48 0 0 0
100 100 100 96 49 27 3 11 0 0 0 0 0 0 1 99 94 92 94 3 0 1 5 5 5 5 88 100 100 100 100 100 100 100 100 100 100 100 64 1 0 30 45 100 100 100 35 0 0
100 100 99 25 76 82 1 70 6 35 2 4 20 0 0 0 20 81 98 4 0 3 5 5 5 5 5 69 100 99 74 97 100 100 100 100 92 11 0 0 8 18 100 44 100 100 25 0 0
100 100 92 65 52 47 9 51 30 0 0 0 2 96 100 9 100 4 0 6 0 0 0 0 5 5 4 0 3 6 43 100 100 100 69 6 0 0 0 0 6 14 4 44 9 12 0 0 0
100 100 22 23 90 88 99 18 6 13 0 0 0 1 86 100 96 57 100 0 0 0 2 0 0 1 5 5 5 5 50 24 5 5 0 0 0 0 0 0 4 17 21 0 0 0 0 0 0
100 90 85 7 53 97 66 8 0 8 1 0 0 2 32 84 100 43 15 99 0 31 100 16 0 0 0 4 3 4 4 4 0 0 0 0 2 2 0 0 0 4 0 0 0 0 0 0 0
77 97 14 82 18 80 6 83 100 60 18 0 0 0 1 39 100 100 90 81 100 13 18 2 2 33 0 0 22 27 4 25 2 16 0 0 0 7 0 0 18 1 0 0 0 0 0 0 0
100 100 44 45 64 12 35 100 100 100 7 0 5 19 4 19 36 100 100 100 91 0 0 20 37 0 0 0 34 30 100 84 0 0 0 0 0 0 0 0 0 0 0 0 0 0 0 0 0
100 100 100 71 53 93 80 95 100 81 0 0 2 43 24 5 5 11 13 42 100 29 0 0 0 0 0 0 0 0 8 15 77 1 0 0 0 0 0 0 0 0 0 0 0 0 0 0 0
100 100 70 85 98 91 100 100 100 100 5 2 0 29 100 87 6 11 5 5 56 78 0 0 0 0 0 0 0 18 83 93 63 0 0 0 0 0 0 0 0 0 0 0 0 0 1 0 0
100 100 100 93 38 100 94 100 100 85 5 5 4 28 100 100 34 7 9 42 39 4 0 0 0 0 0 0 0 3 0 27 92 0 0 0 0 0 0 0 0 0 0 0 3 66 7 12 25
100 82 98 100 99 100 100 100 100 88 89 100 66 100 100 100 97 11 77 100 96 9 0 0 0 0 0 0 0 0 0 2 31 0 0 0 0 0 0 0 0 0 3 3 5 51 100 100 100
89 52 99 37 3 0 52 93 100 100 100 100 100 100 100 100 80 92 98 100 37 70 25 2 0 0 0 0 0 0 0 0 0 0 0 0 0 0 0 0 0 5 24 72 79 74 35 63 99
4 31 25 33 4 2 2 8 21 92 100 100 100 100 100 99 74 31 32 32 38 61 20 4 1 0 0 0 0 0 0 0 0 0 0 0 0 0 0 0 2 34 10 5 5 2 2 100 100
0 0 4 6 1 0 0 0 50 5 33 70 98 99 82 1 4 21 81 59 46 3 0 0 0 0 0 0 0 0 0 0 0 0 35 0 0 0 0 0 0 1 3 0 3 4 1 12 27
0 0 0 0 0 0 0 0 0 0 0 32 32 93 47 94 42 89 100 100 100 100 16 0 0 0 0 0 0 0 0 0 0 0 24 15 0 0 0 0 0 2 0 0 0 0 5 4 52
0 0 0 0 0 0 0 0 0 0 73 7 12 97 100 100 100 100 100 100 100 100 100 27 0 0 0 0 0 0 0 0 0 0 0 0 0 0 0 0 0 0 0 0 1 0 2 5 7
0 0 0 0 0 0 0 0 0 0 0 43 49 87 100 100 98 94 100 100 100 100 100 100 47 38 0 0 0 0 0 0 0 0 0 13 0 0 0 0 0 0 0 0 0 0 0 2 5
0 0 0 0 0 0 0 0 0 0 0 0 0 0 10 8 36 0 76 98 100 100 100 100 100 100 100 42 1 0 0 0 0 0 0 2 0 0 0 0 0 0 0 0 0 0 0 1 15
0 0 0 0 0 0 0 11 7 36 3 0 0 0 0 0 91 100 6 9 48 100 100 100 100 100 100 98 93 91 0 0 0 0 0 0 0 0 0 0 0 0 0 0 0 0 0 0 0
0 0 0 0 0 0 0 26 99 67 11 0 0 0 0 0 0 0 21 11 75 49 4 38 39 97 99 71 78 97 100 54 0 0 0 0 0 1 1 1 0 0 0 0 0 0 0 0 0
0 0 0 0 0 0 0 2 3 5 3 44 1 0 0 0 0 0 0 0 0 1 4 28 28 66 50 100 73 100 100 100 32 0 0 0 0 0 0 0 0 0 0 0 1 5 15 18 5
0 0 0 0 0 0 0 0 5 47 54 97 26 1 0 0 0 0 0 0 0 0 0 0 4 0 0 60 8 100 100 100 65 4 0 0 0 0 0 0 0 0 0 0 0 0 0 0 2